• în România
  • Lista ţărilor
  • Pe 7 zile
  • Temperatura apei
  • Hartă satelitară
  • Meteo pe hartă
  • Widget-uri
  • user-avatar
    Intrare

    Meteo pe oră la Uige

    Astăzi, 18 Ianuarie, Joi

    Timp Temperatura Precipitaţii Vânt Presiune Umiditate
    00:00 +19°C° 0,4 mm 0 m/s 690 mmHg 97%
    01:00 +19°C° 0 mm 0 m/s 690 mmHg 96%
    02:00 +19°C° 0 mm 0 m/s 690 mmHg 96%
    03:00 +19°C° 0 mm 0 m/s 690 mmHg 96%
    04:00 +19°C° 0 mm 0 m/s 690 mmHg 96%
    05:00 +19°C° 0,1 mm 0 m/s 690 mmHg 96%
    06:00 +20°C° 0,1 mm 0 m/s 690 mmHg 96%
    07:00 +20°C° 0 mm 0 m/s 691 mmHg 95%
    08:00 +23°C° 0,3 mm 1 m/s 691 mmHg 93%
    09:00 +24°C° 0,3 mm 1 m/s 691 mmHg 90%
    10:00 +25°C° 0,3 mm 1 m/s 691 mmHg 87%
    11:00 +26°C° 0,9 mm 1 m/s 691 mmHg 85%
    12:00 +26°C° 0,9 mm 1 m/s 690 mmHg 83%
    13:00 +27°C° 0 mm 1 m/s 691 mmHg 82%
    14:00 +26°C° 2 mm 1 m/s 690 mmHg 86%
    15:00 +25°C° 2 mm 2 m/s 690 mmHg 90%
    16:00 +25°C° 2 mm 2 m/s 689 mmHg 93%
    17:00 +24°C° 1,4 mm 2 m/s 689 mmHg 95%
    18:00 +23°C° 1,4 mm 2 m/s 689 mmHg 96%
    19:00 +21°C° 1,4 mm 2 m/s 690 mmHg 97%
    20:00 +22°C° 0,6 mm 1 m/s 690 mmHg 98%
    21:00 +21°C° 0,6 mm 1 m/s 691 mmHg 98%
    22:00 +21°C° 0,6 mm 1 m/s 691 mmHg 99%
    23:00 +21°C° 0,4 mm 1 m/s 691 mmHg 99%

    Mâine, 19 Ianuarie, Vineri

    Timp Temperatura Precipitaţii Vânt Presiune Umiditate
    00:00 +21°C° 0,4 mm 1 m/s 691 mmHg 99%
    01:00 +21°C° 0,4 mm 1 m/s 691 mmHg 99%
    02:00 +21°C° 0,2 mm 1 m/s 690 mmHg 99%
    03:00 +21°C° 0,2 mm 1 m/s 690 mmHg 99%
    04:00 +21°C° 0,2 mm 1 m/s 690 mmHg 99%
    05:00 +21°C° 0 mm 1 m/s 690 mmHg 98%
    06:00 +21°C° 0 mm 1 m/s 691 mmHg 98%
    07:00 +21°C° 0 mm 1 m/s 691 mmHg 98%
    08:00 +22°C° 0,1 mm 1 m/s 691 mmHg 93%
    09:00 +24°C° 0,1 mm 1 m/s 692 mmHg 89%
    10:00 +25°C° 0,1 mm 2 m/s 692 mmHg 85%
    11:00 +25°C° 0,6 mm 2 m/s 691 mmHg 84%
    12:00 +26°C° 0,6 mm 2 m/s 691 mmHg 84%
    13:00 +26°C° 0,6 mm 2 m/s 690 mmHg 84%
    14:00 +25°C° 0,7 mm 2 m/s 690 mmHg 87%
    15:00 +25°C° 0,7 mm 2 m/s 689 mmHg 90%
    16:00 +25°C° 0,7 mm 2 m/s 689 mmHg 93%
    17:00 +24°C° 0,8 mm 1 m/s 689 mmHg 95%
    18:00 +23°C° 0,8 mm 1 m/s 689 mmHg 96%
    19:00 +22°C° 0,8 mm 1 m/s 689 mmHg 97%
    20:00 +22°C° 0,3 mm 1 m/s 690 mmHg 98%
    21:00 +22°C° 0,3 mm 1 m/s 691 mmHg 98%
    22:00 +21°C° 0,3 mm 1 m/s 691 mmHg 98%
    23:00 +21°C° 0,1 mm 1 m/s 691 mmHg 98%

    Poimâine, 20 Ianuarie, Sâmbătă

    Timp Temperatura Precipitaţii Vânt Presiune Umiditate
    00:00 +21°C° 0,1 mm 1 m/s 691 mmHg 99%
    01:00 +21°C° 0,1 mm 1 m/s 690 mmHg 99%
    02:00 +21°C° 0 mm 1 m/s 690 mmHg 99%
    03:00 +21°C° 0 mm 1 m/s 690 mmHg 99%
    04:00 +20°C° 0 mm 1 m/s 690 mmHg 99%
    05:00 +21°C° 0 mm 1 m/s 690 mmHg 98%
    06:00 +21°C° 0 mm 1 m/s 690 mmHg 98%
    07:00 +19°C° 0 mm 0 m/s 691 mmHg 98%
    08:00 +22°C° 0 mm 1 m/s 691 mmHg 91%
    09:00 +24°C° 0 mm 1 m/s 692 mmHg 84%
    10:00 +25°C° 0 mm 1 m/s 692 mmHg 77%
    11:00 +26°C° 0,3 mm 1 m/s 691 mmHg 75%
    12:00 +27°C° 0,3 mm 2 m/s 691 mmHg 74%
    13:00 +27°C° 0,3 mm 2 m/s 690 mmHg 73%
    14:00 +27°C° 0,6 mm 2 m/s 690 mmHg 77%
    15:00 +26°C° 0,6 mm 2 m/s 689 mmHg 80%
    16:00 +26°C° 0,6 mm 2 m/s 689 mmHg 83%
    17:00 +24°C° 0,7 mm 1 m/s 689 mmHg 88%
    18:00 +23°C° 0,7 mm 1 m/s 690 mmHg 93%
    19:00 +22°C° 0,7 mm 1 m/s 690 mmHg 97%
    20:00 +22°C° 0,4 mm 1 m/s 691 mmHg 97%
    21:00 +21°C° 0,4 mm 1 m/s 691 mmHg 98%
    22:00 +19°C° 0,4 mm 0 m/s 692 mmHg 98%
    23:00 +19°C° 0,1 mm 0 m/s 691 mmHg 98%

    21 Ianuarie, Duminică

    Timp Temperatura Precipitaţii Vânt Presiune Umiditate
    00:00 +19°C° 0,1 mm 0 m/s 691 mmHg 98%
    01:00 +20°C° 0,1 mm 1 m/s 690 mmHg 98%
    02:00 +20°C° 0 mm 1 m/s 690 mmHg 98%
    03:00 +20°C° 0 mm 1 m/s 690 mmHg 98%
    04:00 +20°C° 0 mm 1 m/s 690 mmHg 98%
    05:00 +20°C° 0 mm 1 m/s 690 mmHg 98%
    06:00 +20°C° 0 mm 1 m/s 690 mmHg 98%
    07:00 +21°C° 0 mm 1 m/s 691 mmHg 97%
    08:00 +23°C° 0 mm 1 m/s 691 mmHg 87%
    09:00 +25°C° 0 mm 1 m/s 692 mmHg 76%
    10:00 +27°C° 0 mm 1 m/s 693 mmHg 65%
    11:00 +28°C° 0,5 mm 2 m/s 692 mmHg 66%
    12:00 +28°C° 0,5 mm 2 m/s 691 mmHg 66%
    13:00 +29°C° 0,5 mm 2 m/s 690 mmHg 67%
    14:00 +28°C° 1,3 mm 2 m/s 690 mmHg 73%
    15:00 +27°C° 1,3 mm 2 m/s 689 mmHg 80%
    16:00 +26°C° 1,3 mm 2 m/s 689 mmHg 87%
    17:00 +25°C° 1 mm 2 m/s 689 mmHg 90%
    18:00 +23°C° 1 mm 1 m/s 689 mmHg 92%
    19:00 +22°C° 1 mm 1 m/s 690 mmHg 95%
    20:00 +22°C° 0,5 mm 1 m/s 690 mmHg 96%
    21:00 +21°C° 0,5 mm 1 m/s 691 mmHg 96%
    22:00 +21°C° 0,5 mm 1 m/s 691 mmHg 97%
    23:00 +21°C° 0,5 mm 1 m/s 691 mmHg 97%

    22 Ianuarie, Luni

    Timp Temperatura Precipitaţii Vânt Presiune Umiditate
    00:00 +21°C° 0,5 mm 1 m/s 691 mmHg 98%
    01:00 +21°C° 0,5 mm 1 m/s 691 mmHg 98%
    02:00 +20°C° 0,1 mm 1 m/s 690 mmHg 98%
    03:00 +20°C° 0,1 mm 1 m/s 690 mmHg 98%
    04:00 +20°C° 0,1 mm 1 m/s 690 mmHg 98%
    05:00 +20°C° 0,1 mm 1 m/s 691 mmHg 98%
    06:00 +20°C° 0,1 mm 1 m/s 691 mmHg 98%
    07:00 +20°C° 0,1 mm 1 m/s 691 mmHg 97%
    08:00 +22°C° 0 mm 1 m/s 692 mmHg 88%
    09:00 +24°C° 0 mm 1 m/s 692 mmHg 80%
    10:00 +26°C° 0 mm 2 m/s 693 mmHg 71%
    11:00 +27°C° 0,3 mm 2 m/s 692 mmHg 70%
    12:00 +28°C° 0,3 mm 2 m/s 691 mmHg 69%
    13:00 +28°C° 0,3 mm 2 m/s 690 mmHg 68%
    14:00 +28°C° 0,9 mm 2 m/s 690 mmHg 74%
    15:00 +27°C° 0,9 mm 2 m/s 689 mmHg 80%
    16:00 +26°C° 0,9 mm 2 m/s 689 mmHg 86%
    17:00 +25°C° 0,6 mm 2 m/s 689 mmHg 89%
    18:00 +24°C° 0,6 mm 1 m/s 689 mmHg 92%
    19:00 +22°C° 0,6 mm 1 m/s 690 mmHg 96%
    20:00 +22°C° 0,2 mm 1 m/s 690 mmHg 96%
    21:00 +21°C° 0,2 mm 1 m/s 691 mmHg 96%
    22:00 +21°C° 0,2 mm 1 m/s 691 mmHg 96%
    23:00 +21°C° 0,1 mm 1 m/s 691 mmHg 97%

    23 Ianuarie, Marţi

    Timp Temperatura Precipitaţii Vânt Presiune Umiditate
    00:00 +21°C° 0,1 mm 1 m/s 691 mmHg 97%
    01:00 +20°C° 0,1 mm 1 m/s 690 mmHg 97%
    02:00 +20°C° 0,1 mm 1 m/s 690 mmHg 97%
    03:00 +20°C° 0,1 mm 1 m/s 690 mmHg 97%
    04:00 +20°C° 0,1 mm 1 m/s 690 mmHg 97%
    05:00 +20°C° 0 mm 1 m/s 690 mmHg 97%
    06:00 +20°C° 0 mm 1 m/s 690 mmHg 96%
    07:00 +20°C° 0 mm 1 m/s 691 mmHg 96%
    08:00 +22°C° 0 mm 1 m/s 691 mmHg 91%
    09:00 +23°C° 0 mm 1 m/s 691 mmHg 85%
    10:00 +24°C° 0 mm 1 m/s 691 mmHg 80%
    11:00 +25°C° 0,1 mm 1 m/s 691 mmHg 75%
    12:00 +26°C° 0,1 mm 1 m/s 690 mmHg 71%
    13:00 +27°C° 0,1 mm 1 m/s 690 mmHg 66%
    14:00 +27°C° 0,1 mm 1 m/s 689 mmHg 66%
    15:00 +27°C° 0,1 mm 1 m/s 689 mmHg 65%
    16:00 +27°C° 0,1 mm 1 m/s 689 mmHg 65%
    17:00 +25°C° 0,1 mm 1 m/s 689 mmHg 71%
    18:00 +24°C° 0,1 mm 1 m/s 689 mmHg 76%
    19:00 +20°C° 0,1 mm 0 m/s 689 mmHg 82%
    20:00 +19°C° 0 mm 0 m/s 689 mmHg 83%
    21:00 +19°C° 0 mm 0 m/s 690 mmHg 84%
    22:00 +20°C° 0 mm 1 m/s 690 mmHg 85%
    23:00 +20°C° 0 mm 1 m/s 690 mmHg 86%
    Arată mai mult